Weather observations for the past three days for
Norwood, Norwood Memorial Airport
Metric (Imperial)
Date Time (edt) Wind (kph) Vis. (km) Weather Sky Cond. Temperature (ºC) Relative Humidity Wind Chill (°C) Heat Index (°C) Pressure Precipitation (cm)
Air Dwpt 6 hour altimeter (cm) sea level (mb) 1 hr 3 hr 6 hr
Max. Min.
20 13:53 SW 15 16.09 Fair CLR 35 24.4 35 25 54% 42 76.71 1022.8
20 12:53 SW 13 16.09 Fair CLR 33.9 24.4 58% 41 76.78 1023.5
20 11:53 SW 7 16.09 Fair CLR 33.3 25 62% 41 76.81 1023.9
20 10:53 SW 9 16.09 Fair CLR 31.7 23.9 63% 37 76.84 1024.1
20 09:53 SW 11 16.09 Fair CLR 29.4 22.8 68% 33 76.84 1024.3
20 08:53 W 9 16.09 Fair CLR 27.8 21.1 67% 30 76.84 1024.2
20 07:53 SW 7 16.09 Fair CLR 25 19.4 25 22.8 71% 26 76.86 1024.5
20 06:53 Calm 16.09 Fair CLR 23.9 17.8 69% 25 76.86 1024.6
20 05:53 Vrbl 6 16.09 Fair CLR 22.8 16.7 69% 76.84 1024.4
20 04:53 S 11 16.09 Fair CLR 23.3 15.6 62% 76.84 1024.2
20 03:53 SW 9 16.09 Fair CLR 23.9 15 58% 25 76.84 1024.2
20 02:53 S 7 16.09 Fair CLR 23.3 15 60% 76.84 1024.3
20 01:53 S 7 16.09 Fair CLR 23.9 16.1 27.8 23.9 62% 25 76.86 1024.5
20 00:53 SW 11 16.09 Fair CLR 25 17.2 62% 26 76.86 1024.5
19 23:53 S 11 16.09 Fair CLR 25.6 18.9 67% 27 76.89 1024.8
19 22:53 S 9 16.09 Fair CLR 26.1 20.6 72% 28 76.91 1025.3
19 21:53 SW 17 16.09 Fair CLR 27.2 21.1 69% 29 76.91 1025.4
19 20:53 S 17 16.09 Fair CLR 27.2 22.2 74% 30 76.84 1024.4
19 19:53 S 9 16.09 Fair CLR 27.8 22.8 35.6 27.8 74% 31 76.89 1024.9
19 18:53 S 13 16.09 Fair CLR 28.9 23.3 72% 33 76.89 1024.9
19 17:53 S 19 G 30 16.09 Fair CLR 30.6 23.9 67% 36 76.84 1024.2
19 16:53 S 11 16.09 Fair CLR 32.8 25 64% 40 76.81 1024.0
19 15:53 SW 17 G 30 16.09 A Few Clouds FEW045 35 25 56% 43 76.84 1024.1
19 14:53 SW 20 G 30 16.09 Fair CLR 34.4 24.4 56% 42 76.84 1024.4
19 13:53 S 19 16.09 Fair CLR 33.9 24.4 34.4 24.4 58% 41 76.86 1024.7
19 12:53 W 19 16.09 Fair CLR 33.9 23.9 56% 40 76.89 1025.1
19 11:53 W 11 16.09 Fair CLR 32.2 23.9 62% 38 76.94 1025.6
19 10:53 SW 13 16.09 Fair CLR 30.6 22.8 63% 35 76.96 1026.0
19 09:53 SW 17 16.09 Fair CLR 28.9 21.7 65% 32 76.96 1025.9
19 08:53 Vrbl 11 16.09 Fair CLR 26.7 20 67% 28 76.99 1026.3
19 07:53 SW 13 16.09 Fair CLR 24.4 18.3 24.4 21.1 69% 25 76.99 1026.4
19 06:53 S 9 16.09 Fair CLR 22.8 17.8 74% 76.99 1026.3
19 05:53 SW 11 16.09 Fair CLR 22.2 16.7 71% 76.96 1025.9
19 04:53 S 13 16.09 Fair CLR 21.1 16.1 73% 76.94 1025.7
19 03:53 S 9 16.09 Fair CLR 21.1 15.6 71% 76.91 1025.4
19 02:53 S 11 16.09 Fair CLR 22.8 16.7 69% 76.86 1024.7
19 01:53 S 13 16.09 Fair CLR 23.9 17.8 28.3 23.3 69% 25 76.86 1024.5
19 00:53 SW 11 16.09 Fair CLR 24.4 18.9 72% 25 76.86 1024.6
18 23:53 Vrbl 9 16.09 Fair CLR 25 20 74% 26 76.84 1024.3
18 22:53 S 9 16.09 Fair CLR 23.9 20.6 82% 24 76.81 1024.1
18 21:53 S 9 16.09 Fair CLR 24.4 20.6 79% 25 76.81 1024.1
18 20:53 S 15 16.09 Fair CLR 26.7 21.7 74% 29 76.76 1023.2
18 19:53 S 19 16.09 Fair CLR 28.3 22.8 34.4 28.3 72% 32 76.71 1022.6
18 18:53 S 15 G 30 16.09 Fair CLR 30.6 23.3 65% 35 76.66 1022.1
18 17:53 S 13 16.09 Fair CLR 32.8 23.9 59% 39 76.66 1021.9
18 16:53 S 19 G 28 16.09 A Few Clouds FEW050 33.9 23.3 54% 40 76.66 1021.8
18 15:53 SW 11 G 28 16.09 Fair CLR 33.9 22.8 52% 39 76.66 1022.1
18 14:53 SW 19 16.09 Partly Cloudy SCT049 34.4 23.3 52% 40 76.66 1021.9
18 13:53 S 20 G 30 16.09 A Few Clouds FEW047 33.3 23.3 34.4 23.9 56% 39 76.68 1022.1
18 12:53 SW 9 16.09 Fair CLR 33.3 23.3 56% 39 76.71 1022.5
18 11:53 SW 11 16.09 Fair CLR 31.7 23.3 61% 37 76.73 1022.8
18 10:53 SW 7 16.09 Fair CLR 30 22.2 63% 33 76.76 1023.1
18 09:53 SW 11 16.09 Fair CLR 28.3 21.7 67% 31 76.76 1023.2
18 08:53 SW 15 16.09 Fair CLR 26.1 20 69% 27 76.76 1023.2
18 07:53 SW 11 16.09 Fair CLR 23.9 18.9 23.9 18.3 74% 25 76.73 1023.0
18 06:53 SW 9 16.09 Fair CLR 22.2 18.3 79% 76.71 1022.7
18 05:53 S 6 16.09 Fair CLR 19.4 17.8 91% 76.68 1022.2
18 04:53 S 7 16.09 Fair CLR 18.3 17.2 93% 76.63 1021.4
18 03:53 S 7 16.09 Fair CLR 18.9 17.2 90% 76.61 1021.1
18 02:53 S 7 16.09 Fair CLR 19.4 17.2 87% 76.58 1020.9
18 01:53 S 7 16.09 Fair CLR 19.4 17.2 23.3 19.4 87% 76.61 1021.2
18 00:53 S 9 16.09 Fair CLR 20.6 17.2 81% 76.58 1021.0
17 23:53 S 11 16.09 Fair CLR 20.6 17.2 81% 76.61 1021.4
17 22:53 S 11 16.09 Fair CLR 21.1 17.2 79% 76.63 1021.4
17 21:53 S 13 16.09 Fair CLR 21.7 17.2 76% 76.61 1021.2
17 20:53 S 11 16.09 Mostly Cloudy BKN100 21.7 17.2 76% 76.61 1021.1
17 19:53 S 13 16.09 Fair CLR 23.3 17.2 28.3 23.3 69% 76.56 1020.7
17 18:53 S 13 16.09 Fair CLR 25 17.8 64% 26 76.53 1020.2
17 17:53 S 22 16.09 Fair CLR 25.6 17.8 62% 27 76.53 1020.2
17 16:53 S 19 G 37 16.09 Fair CLR 25.6 17.8 62% 27 76.5 1019.9
17 15:53 S 24 G 37 16.09 A Few Clouds FEW110 26.1 17.8 60% 27 76.5 1020.0
17 14:53 S 19 G 35 16.09 Fair CLR 26.1 17.8 60% 27 76.56 1020.5
Date Time (edt) Wind (kph) Vis. (km) Weather Sky Cond. Air Dwpt Max. Min. Relative Humidity Wind Chill (°C) Heat Index (°C) altimeter (cm) sea level (mb) 1 hr 3 hr 6 hr
6 hour
Temperature (ºC) Pressure Precipitation (cm)